User: anonymous   Login
Location: UBC Liquid-Mirror Observatory
(49.2876°N, 122.5728°W)
Time: 23:31:00
(UTC-08:00)
Language:

Cosmos 1315 - Orbit

View from above orbital plane
View from above orbital plane
View from above satellite
View from above satellite

Ground track
Ground track

The orbit data is extracted from the following two-line orbital elements,

1 12903U 81103A   15056.89011433  .00057699  00000-0  58682-3 0  9992
2 12903 081.1270 195.8140 0000876 115.6947 004.5078 15.64931341829727
Epoch (UTC): 25 February 2015 21:21:45
Eccentricity: 0.0000876
inclination: 81.1270°
perigee height: 373 km
apogee height: 374 km
right ascension of ascending node: 195.8140°
argument of perigee: 115.6947°
revolutions per day: 15.64931341
mean anomaly at epoch: 4.5078°
orbit number at epoch: 82972

The dashed part of the orbit path shows where the satellite is in the earth's shadow,  

DLR